Regional Weather Roundup
Issued by NWS

Home | Current Version | Previous Version | Text Only | Print | Product List | Glossary On
Versions: 1 2 3 4 5 6 7 8 9 10 11 12 13 14 15 16 17 18 19 20 21 22 23 24 25 26 27 28 29 30 31 32 33 34 35 36 37 38 39 40 41 42 43 44 45 46 47 48 49 50
988
ASUS44 KBMX 201710
RWRAL

ALABAMA REGIONAL WEATHER ROUNDUP
NATIONAL WEATHER SERVICE BIRMINGHAM AL
1200 PM CDT WED SEP 20 2017

NOTE: "FAIR" INDICATES FEW OR NO CLOUDS BELOW 12,000 FEET
WITH NO SIGNIFICANT WEATHER AND/OR OBSTRUCTIONS TO VISIBILITY.

THE REMARK "TC" DENOTES TEMPERATURE IN DEGREES CELSIUS.

ALZ001>011-014-016>018-020-201800-
NORTH ALABAMA

CITY           SKY/WX    TMP DP  RH WIND       PRES   REMARKS
MUSCLE SHOALS  SUNNY     87  71  58 CALM      30.06F HX  93
HUNTSVILLE     MOSUNNY   85  74  69 CALM      30.06F HX  92
DECATUR        SUNNY     85  73  67 VRB6      30.06F HX  91
HALEYVILLE     FAIR      86  73  65 W5        30.09F HX  93
GADSDEN        SUNNY     79  72  79 CALM      30.08F
$$

ALZ012-013-022-023-030>036-040>044-201800-
WEST CENTRAL ALABAMA

CITY           SKY/WX    TMP DP  RH WIND       PRES   REMARKS
TUSCALOOSA     MOSUNNY   87  75  67 E5        30.04F HX  96
DEMOPOLIS        N/A     86  72  62 CALM      30.04S HX  92
$$

ALZ015-024>026-033>036-041>044-201800-
CENTRAL ALABAMA

CITY           SKY/WX    TMP DP  RH WIND       PRES   REMARKS
BIRMINGHAM     MOSUNNY   86  72  62 N3        30.08F HX  92
MONTGOMERY     SUNNY     86  71  60 CALM      30.05F HX  91
SHELBY CO ARPT SUNNY     83  74  74 CALM      30.07S
MAXWELL AFB    SUNNY     84  72  67 NW3       30.04F HX  90
GREENVILLE     PTSUNNY   88  71  57 N6        30.04F HX  94
SELMA          FAIR      86  73  66 CALM      30.04S HX  93
PRATTVILLE     FAIR      83  73  72 CALM      30.04F
BESSEMER       FAIR      83  73  72 CALM      30.08S
TALLADEGA      FAIR     N/A N/A N/A MISG      30.08S
PELL CITY      SUNNY     81  73  78 VRB6      30.08S
MARION         FAIR      85  73  68 S5        30.04S HX  92
SYLACAUGA      FAIR      83  75  77 CALM      30.07F
$$

ALZ019-021-028-029-037-038-045>048-201800-
EAST CENTRAL ALABAMA

CITY           SKY/WX    TMP DP  RH WIND       PRES   REMARKS
ANNISTON       SUNNY     84  70  62 VRB3      30.07F
ALEXANDER CITY SUNNY     81  71  70 CALM      30.07F
AUBURN         NOT AVBL
$$

ALZ051>064-201800-
SOUTHWEST ALABAMA

CITY           SKY/WX    TMP DP  RH WIND       PRES   REMARKS
MOBILE         CLOUDY    86  73  65 NW5       30.05S HX  93
BROOKLEY FIELD PTSUNNY   87  77  72 E7        30.04F HX  99
EVERGREEN      SUNNY     89  71  55 N6        30.04F HX  95
$$

ALZ049-050-065>069-201800-
SOUTHEAST ALABAMA

CITY           SKY/WX    TMP DP  RH WIND       PRES   REMARKS
DOTHAN         MOSUNNY   84  76  76 VRB3      30.08F HX  93
OZARK          MOSUNNY   84  74  72 NW5       30.04F HX  91
TROY           MOSUNNY   84  75  74 VRB3      30.05F HX  92
EUFAULA        FAIR      86  73  65 VRB3      30.03F HX  93
$$




USA.gov is the U.S. government's official web portal to all federal, state and local government web resources and services.